Location: Adamstown South Public School
(32.9318°S, 151.7012°E)
Time: 17:22:43
(UTC+00:00)

Cosmos 371 Rocket - Pass Details

Date: 07 June 2020
Orbit: 683 x 700 km, 74.0° (Epoch: 04 July)

Event Time Altitude Azimuth Distance (km) Brightness Sun altitude
Rises 07:46:03 0° 201° (SSW) 3,079 6.6 -11.0°
Reaches altitude 10° 07:48:23 10° 203° (SSW) 2,156 5.9 -11.4°
Maximum altitude 07:53:11 66° 284° (WNW) 759 3.8 -12.4°
Drops below altitude 10° 07:57:57 10° 5° (N) 2,135 6.0 -13.3°
Sets 08:00:16 0° 8° (N) 3,045 6.7 -13.8°
